Temp
10 10 10 10 10 11 10 10 10 10 9 9 9 9 10 11 10 11 11 10 10 10 10 10 10 10 10 10 10 10 10 9 9 9 9 9 9 9 9 9 8 8 8 8 7 7 7 7 7
10 10 10 10 11 12 10 10 10 10 11 10 11 11 11 10 11 11 11 10 10 10 10 10 10 10 10 10 10 10 10 9 9 9 9 9 9 9 9 9 8 8 8 8 7 7 7 7 7
10 11 11 11 11 13 11 10 9 11 11 10 12 10 11 11 11 11 11 11 10 10 10 10 10 10 10 10 10 10 10 9 9 9 9 9 9 9 9 8 8 8 8 7 7 7 7 7 7
10 11 11 11 11 12 11 10 10 10 11 11 10 11 11 11 11 11 11 11 11 10 10 10 10 10 10 10 10 9 9 9 9 9 9 9 9 9 9 8 8 8 7 7 7 7 7 7 7
11 11 11 11 12 11 11 10 10 11 12 11 11 11 12 11 11 11 11 11 11 11 10 10 10 10 10 10 9 10 9 9 9 9 9 9 9 9 8 8 8 8 8 7 8 7 7 6 6
10 11 12 12 11 11 10 10 10 11 11 11 11 11 12 11 11 11 11 11 11 11 10 10 10 10 10 10 9 9 9 9 9 9 9 9 9 9 9 8 8 8 8 8 8 7 6 6 7
11 10 11 12 12 11 11 10 10 11 11 10 11 9 11 11 11 11 11 11 11 11 10 10 10 10 10 10 9 9 9 8 8 9 9 9 9 9 8 8 8 9 8 8 8 7 7 7 7
12 11 11 11 12 11 11 11 10 11 10 11 11 11 12 12 12 11 11 11 11 11 11 10 10 10 10 9 9 9 8 8 8 9 9 8 9 8 8 8 8 9 8 8 8 7 8 8 8
12 12 12 12 12 11 11 11 11 11 11 11 12 12 12 12 12 12 11 11 11 11 11 10 10 10 10 9 9 9 9 9 9 9 9 9 9 9 9 9 9 9 8 8 8 8 8 8 8
12 14 12 12 12 13 11 11 10 11 11 12 12 12 12 12 12 12 11 11 11 11 11 11 10 10 10 9 9 9 9 9 9 9 9 9 9 9 9 9 9 9 9 8 8 8 8 8 8
12 13 13 12 12 12 11 11 11 11 11 11 11 11 12 11 11 11 11 11 11 11 11 10 10 10 10 9 10 9 9 9 9 10 9 9 10 9 9 9 9 9 9 8 8 8 8 8 8
14 13 12 13 13 12 12 11 11 11 11 11 11 11 11 11 11 11 11 11 11 11 11 10 10 10 10 10 10 10 10 10 10 10 10 10 10 9 9 9 9 9 9 9 9 8 8 8 8
13 13 13 13 13 13 12 12 12 11 11 11 11 11 11 11 11 11 11 11 11 11 11 11 10 10 10 10 10 10 10 10 10 10 10 9 9 9 9 9 9 9 9 9 9 9 8 8 8
14 14 14 14 14 13 13 12 12 12 12 11 12 11 11 11 11 11 11 11 11 11 11 11 10 10 10 10 10 10 10 10 10 10 9 9 10 10 9 10 10 10 10 9 9 9 8 8 7
14 15 14 14 13 14 13 13 12 13 12 12 12 12 12 12 11 11 11 11 11 11 11 11 10 10 10 10 10 10 10 10 10 10 10 10 10 10 10 10 10 11 11 10 10 10 10 9 9
14 15 16 14 13 13 14 15 13 13 13 12 12 12 12 12 12 12 11 11 11 11 11 11 10 10 11 11 11 11 11 11 11 11 10 10 10 11 11 11 11 11 11 11 11 11 10 10 10
15 16 16 14 14 13 14 15 14 14 13 13 13 13 13 12 12 12 12 12 11 11 11 11 11 10 10 11 11 11 11 11 11 11 11 11 11 11 11 11 11 11 11 11 11 11 11 11 10
17 16 16 16 14 14 14 15 14 14 13 13 13 13 13 12 12 12 12 12 11 12 11 11 11 10 10 11 11 11 11 11 11 11 11 11 11 11 12 11 12 12 12 12 11 11 11 11 11
15 16 16 15 14 14 15 15 14 15 14 12 13 14 14 13 12 12 12 12 11 12 12 12 11 11 11 11 11 11 11 11 11 11 12 12 12 11 11 11 11 11 11 11 11 11 11 11 11
15 15 16 15 14 14 16 16 15 14 14 12 13 13 13 13 13 13 12 12 12 12 12 12 11 11 11 11 11 11 11 11 12 12 12 12 11 11 11 11 11 11 11 11 11 11 11 11 11
14 15 16 16 14 15 15 16 16 15 14 12 13 13 13 13 14 13 13 12 12 12 12 12 11 11 11 11 11 12 12 12 12 12 12 12 11 11 12 12 11 11 11 11 11 11 11 11 11
15 15 15 15 15 17 15 18 16 15 14 15 14 15 14 13 13 14 13 13 13 12 12 12 12 11 11 11 11 12 12 12 12 12 12 12 11 11 12 12 11 11 11 11 11 11 11 11 11
15 15 14 15 15 16 16 16 18 16 15 14 16 16 15 15 14 14 14 13 12 12 12 12 11 11 11 12 12 12 12 12 12 12 12 11 11 11 11 11 11 11 12 12 12 12 11 11 11
14 14 14 14 15 17 16 17 18 18 17 16 15 16 16 16 16 15 14 13 13 12 12 12 12 11 11 12 12 12 13 12 12 12 12 12 11 11 11 11 12 12 12 13 13 13 12 12 12
13 13 15 16 17 17 17 17 17 17 16 16 16 15 15 16 16 16 14 13 13 13 12 12 12 12 12 12 12 12 13 13 13 12 12 12 11 11 12 12 12 12 12 13 13 13 13 13 13
13 14 16 16 18 18 17 16 16 16 16 16 16 16 16 14 14 15 15 13 13 13 13 12 12 12 12 12 12 13 13 13 13 12 12 12 12 12 12 12 12 12 12 13 13 13 13 13 13
13 13 14 15 16 17 18 16 16 15 16 16 16 16 15 15 16 16 15 14 13 13 13 13 12 12 12 12 12 13 13 13 13 13 12 12 12 12 12 12 12 12 12 12 13 13 13 13 13
13 13 14 14 16 16 17 16 17 17 17 17 15 16 16 17 16 16 16 14 13 13 13 13 12 12 12 12 12 13 13 13 13 13 12 12 12 12 12 12 12 12 12 12 12 12 12 12 12
12 13 13 15 15 17 17 17 17 16 16 16 15 15 16 16 16 16 16 15 14 13 13 13 12 12 12 12 12 13 13 13 13 13 13 13 12 12 12 12 12 13 12 12 13 13 12 12 12
13 13 13 14 15 15 16 17 16 16 15 15 16 16 16 16 16 16 16 16 15 14 13 13 13 13 12 12 12 13 13 14 13 13 13 13 13 13 12 12 12 13 13 13 13 13 13 13 13
Height
3150 3151 3153 3154 3160 3157 3159 3161 3161 3164 3168 3171 3173 3177 3179 3178 3179 3184 3181 3182 3183 3184 3185 3187 3188 3189 3189 3190 3191 3191 3191 3191 3191 3191 3191 3191 3192 3192 3192 3193 3193 3193 3193 3193 3193 3192 3192 3193 3193
3151 3153 3155 3155 3157 3158 3161 3163 3164 3168 3168 3172 3174 3176 3178 3179 3178 3178 3181 3183 3184 3185 3187 3188 3189 3190 3191 3191 3192 3193 3193 3192 3191 3191 3192 3192 3193 3193 3194 3195 3195 3195 3195 3195 3195 3195 3194 3194 3194
3153 3155 3156 3156 3157 3159 3162 3165 3166 3168 3172 3174 3176 3177 3178 3179 3179 3181 3183 3184 3185 3187 3188 3189 3191 3192 3192 3192 3194 3194 3193 3193 3193 3193 3192 3194 3195 3196 3197 3198 3197 3196 3196 3196 3196 3196 3195 3195 3195
3155 3156 3158 3159 3159 3161 3163 3166 3167 3169 3173 3175 3177 3178 3179 3179 3180 3182 3184 3186 3187 3187 3189 3190 3192 3193 3193 3194 3195 3194 3194 3194 3194 3194 3194 3196 3197 3198 3199 3199 3198 3198 3199 3198 3198 3198 3196 3194 3194
3157 3157 3160 3161 3161 3164 3167 3168 3170 3172 3174 3176 3177 3179 3178 3180 3181 3183 3185 3187 3188 3189 3190 3192 3194 3194 3195 3196 3196 3195 3196 3196 3196 3196 3197 3198 3199 3200 3200 3199 3200 3200 3199 3199 3199 3199 3195 3191 3190
3160 3159 3163 3162 3164 3168 3170 3172 3173 3175 3176 3178 3178 3179 3180 3180 3183 3185 3187 3188 3189 3190 3192 3194 3195 3196 3196 3197 3197 3197 3198 3199 3198 3200 3200 3200 3200 3201 3201 3201 3201 3201 3200 3200 3200 3198 3192 3189 3187
3162 3163 3163 3164 3166 3170 3172 3173 3175 3176 3178 3179 3180 3180 3181 3182 3184 3186 3188 3190 3190 3192 3193 3195 3196 3197 3198 3198 3198 3199 3200 3200 3201 3202 3203 3202 3201 3202 3202 3203 3203 3202 3202 3202 3202 3201 3195 3195 3194
3163 3166 3165 3167 3168 3170 3173 3175 3176 3177 3179 3179 3180 3181 3181 3183 3185 3187 3189 3191 3192 3193 3195 3196 3198 3199 3199 3200 3201 3201 3201 3201 3203 3204 3204 3203 3202 3203 3205 3205 3205 3205 3205 3205 3205 3204 3202 3202 3201
3165 3168 3167 3169 3171 3170 3172 3173 3174 3176 3178 3179 3180 3181 3182 3184 3186 3188 3190 3193 3194 3195 3197 3198 3200 3201 3202 3202 3202 3203 3203 3204 3205 3205 3205 3206 3206 3207 3207 3208 3208 3208 3208 3208 3208 3208 3207 3206 3206
3169 3170 3167 3169 3171 3170 3173 3176 3177 3179 3178 3180 3181 3181 3182 3185 3187 3189 3192 3194 3195 3197 3198 3199 3201 3202 3204 3204 3204 3205 3205 3205 3206 3207 3207 3210 3209 3211 3210 3210 3211 3211 3211 3211 3211 3211 3211 3210 3211
3172 3172 3173 3172 3171 3173 3175 3178 3179 3180 3182 3181 3181 3182 3183 3185 3188 3190 3192 3195 3197 3198 3200 3201 3202 3204 3205 3205 3206 3207 3206 3207 3208 3209 3210 3210 3211 3212 3213 3213 3214 3214 3215 3214 3214 3214 3213 3213 3214
3174 3174 3173 3175 3173 3176 3178 3179 3180 3182 3182 3181 3181 3181 3183 3186 3188 3190 3193 3195 3197 3199 3201 3203 3204 3205 3207 3207 3208 3209 3209 3210 3211 3212 3212 3213 3213 3214 3214 3214 3215 3215 3216 3216 3216 3216 3216 3216 3216
3174 3173 3174 3176 3175 3179 3180 3181 3182 3182 3182 3182 3182 3182 3183 3186 3189 3191 3193 3196 3198 3200 3202 3205 3205 3207 3208 3209 3210 3211 3212 3213 3214 3214 3215 3215 3215 3216 3216 3216 3216 3216 3216 3217 3217 3218 3218 3218 3217
3174 3175 3176 3177 3178 3180 3182 3182 3182 3182 3181 3182 3182 3182 3184 3186 3189 3191 3194 3196 3198 3200 3202 3206 3206 3207 3209 3211 3212 3213 3214 3215 3216 3217 3217 3217 3218 3219 3218 3218 3217 3218 3218 3218 3218 3218 3219 3219 3220
3175 3176 3176 3178 3179 3180 3182 3183 3183 3182 3181 3181 3182 3182 3185 3186 3189 3192 3194 3196 3198 3201 3202 3206 3207 3208 3210 3212 3213 3214 3216 3217 3219 3219 3219 3220 3221 3221 3220 3220 3219 3220 3220 3219 3219 3220 3220 3221 3221
3175 3174 3173 3177 3179 3179 3179 3180 3183 3181 3181 3182 3182 3182 3185 3187 3189 3191 3194 3195 3198 3200 3203 3205 3208 3209 3211 3213 3215 3216 3218 3219 3221 3222 3222 3222 3224 3224 3223 3222 3222 3222 3221 3221 3221 3221 3222 3223 3223
3173 3170 3169 3175 3178 3178 3179 3179 3180 3181 3182 3182 3182 3183 3184 3186 3189 3191 3193 3195 3197 3200 3202 3205 3208 3209 3212 3214 3216 3218 3220 3222 3224 3225 3225 3225 3226 3226 3226 3225 3225 3225 3225 3225 3224 3224 3225 3225 3226
3168 3170 3170 3171 3177 3177 3179 3180 3178 3179 3181 3182 3182 3183 3183 3185 3188 3191 3193 3195 3197 3199 3201 3204 3208 3209 3212 3215 3217 3219 3222 3224 3225 3226 3227 3228 3228 3229 3228 3228 3228 3228 3228 3228 3228 3228 3228 3228 3228
3168 3169 3170 3173 3175 3176 3177 3178 3178 3176 3179 3179 3181 3182 3183 3185 3186 3189 3192 3194 3196 3198 3200 3203 3207 3209 3211 3214 3217 3220 3223 3225 3227 3228 3230 3230 3230 3231 3231 3230 3230 3230 3230 3230 3231 3230 3231 3230 3230
3168 3169 3169 3172 3173 3174 3175 3175 3176 3175 3176 3178 3179 3180 3182 3183 3185 3187 3189 3192 3195 3197 3200 3201 3206 3208 3211 3214 3217 3220 3223 3226 3228 3229 3231 3232 3232 3233 3232 3232 3232 3232 3231 3231 3232 3232 3232 3232 3232
3165 3166 3166 3169 3171 3172 3173 3172 3173 3175 3173 3175 3176 3178 3179 3181 3183 3184 3187 3190 3193 3195 3198 3201 3203 3208 3210 3213 3216 3220 3223 3226 3229 3230 3232 3233 3234 3234 3233 3234 3233 3233 3233 3232 3233 3234 3234 3234 3234
3160 3164 3165 3168 3169 3167 3171 3165 3169 3170 3171 3171 3172 3174 3176 3177 3179 3181 3183 3187 3190 3193 3196 3200 3202 3205 3208 3211 3215 3219 3223 3226 3228 3230 3232 3234 3234 3234 3234 3235 3235 3234 3234 3234 3234 3234 3235 3235 3234
3157 3160 3164 3165 3166 3166 3167 3168 3165 3167 3168 3169 3170 3172 3173 3175 3176 3178 3181 3184 3187 3190 3193 3198 3200 3203 3205 3208 3213 3218 3222 3225 3228 3230 3232 3234 3235 3235 3235 3235 3236 3236 3235 3235 3235 3235 3235 3234 3234
3156 3158 3161 3162 3162 3158 3161 3163 3160 3162 3165 3168 3170 3170 3171 3172 3173 3175 3179 3181 3183 3187 3190 3194 3197 3201 3203 3207 3211 3216 3221 3224 3227 3229 3232 3234 3235 3235 3235 3236 3236 3236 3236 3237 3237 3236 3236 3235 3234
3150 3154 3154 3155 3153 3151 3156 3157 3160 3161 3163 3166 3169 3170 3167 3167 3168 3169 3172 3173 3177 3181 3186 3189 3194 3198 3202 3205 3209 3214 3219 3223 3226 3228 3231 3233 3235 3236 3236 3237 3237 3238 3238 3238 3238 3238 3238 3237 3236
3142 3146 3143 3143 3142 3144 3149 3149 3155 3159 3161 3163 3164 3166 3167 3162 3160 3163 3166 3168 3173 3176 3181 3186 3190 3195 3199 3203 3207 3212 3217 3221 3224 3227 3230 3231 3233 3235 3237 3238 3238 3238 3239 3239 3239 3239 3239 3238 3237
3136 3137 3144 3143 3140 3139 3138 3147 3151 3153 3156 3159 3160 3162 3160 3157 3154 3154 3159 3162 3168 3171 3176 3181 3186 3191 3196 3200 3204 3209 3214 3218 3222 3225 3228 3230 3232 3234 3235 3237 3238 3238 3238 3238 3238 3238 3237 3237 3236
3128 3137 3139 3138 3136 3134 3139 3142 3143 3147 3152 3156 3160 3159 3156 3153 3149 3149 3153 3157 3163 3168 3172 3177 3183 3188 3192 3196 3201 3205 3211 3216 3220 3223 3226 3228 3230 3232 3234 3235 3237 3237 3237 3238 3238 3237 3236 3236 3234
3124 3126 3129 3133 3134 3131 3133 3134 3142 3146 3149 3152 3153 3155 3152 3149 3147 3148 3151 3154 3159 3164 3167 3172 3177 3183 3187 3192 3196 3201 3206 3211 3216 3220 3223 3225 3227 3229 3232 3233 3235 3235 3236 3236 3236 3236 3235 3234 3233
3117 3121 3125 3124 3128 3129 3131 3131 3137 3141 3145 3148 3150 3148 3149 3148 3147 3147 3150 3153 3155 3159 3162 3166 3171 3176 3182 3187 3192 3197 3202 3206 3210 3215 3220 3223 3225 3227 3230 3231 3233 3233 3233 3234 3234 3234 3234 3233 3231
Wind_Speed
3 6 7 5 5 7 9 8 13 19 20 14 17 10 9 8 8 5 18 17 16 15 14 12 12 11 11 11 11 10 10 10 10 10 10 11 10 11 10 11 12 12 11 10 10 9 7 7 6
8 7 6 7 6 12 10 15 18 18 19 22 16 12 6 4 3 19 18 17 16 15 14 12 11 11 12 12 10 10 11 10 10 9 9 10 11 11 12 12 12 11 11 12 11 10 8 7 6
13 10 8 6 4 10 14 16 16 20 24 15 12 7 4 5 15 17 17 15 15 15 13 12 11 11 12 12 11 10 10 10 10 10 9 10 11 11 12 13 14 16 14 12 9 8 7 5 2
14 11 12 9 13 12 16 18 21 23 20 15 9 2 2 11 19 17 16 15 15 14 13 12 12 12 12 12 11 10 10 10 10 10 10 11 12 13 12 11 12 12 12 9 6 4 2 3 2
11 14 5 13 16 18 19 20 19 21 17 12 7 5 12 21 19 18 16 16 15 13 13 12 12 13 13 11 10 11 11 10 11 11 12 13 13 12 10 10 10 8 6 4 4 6 4 8 3
14 13 7 14 20 19 17 15 12 13 10 8 5 4 16 18 17 17 16 16 16 13 13 13 12 13 12 10 10 10 10 11 11 13 13 12 12 12 10 12 11 9 5 5 7 7 9 13 10
9 9 11 12 18 16 16 14 8 11 9 7 2 6 15 17 17 16 15 14 15 14 14 14 13 13 11 10 10 10 10 10 10 8 10 11 11 12 10 11 11 9 10 11 10 13 17 19 22
9 6 11 8 11 12 14 13 11 8 9 6 2 3 12 13 15 16 15 13 14 14 14 14 12 13 11 11 11 10 6 6 8 8 9 8 11 11 15 14 12 11 10 10 12 17 21 22 24
16 7 10 8 7 11 13 12 13 14 7 7 6 8 9 10 13 14 14 13 13 14 14 14 13 12 11 11 11 9 10 10 9 10 11 10 10 15 14 12 12 13 13 11 14 18 19 17 20
9 9 5 10 5 7 15 8 9 8 5 7 8 8 8 11 12 13 13 13 14 14 14 13 13 13 11 12 11 10 11 11 12 14 13 14 12 12 11 12 13 13 13 13 13 13 15 16 14
5 10 10 6 8 11 13 10 9 7 7 4 6 3 7 13 13 14 15 13 14 14 14 13 14 14 12 13 12 13 14 12 14 14 12 13 13 14 15 14 13 12 10 9 8 10 12 11 9
7 3 11 7 10 11 13 11 10 6 7 7 6 9 10 13 15 15 16 13 14 14 15 13 14 14 12 14 14 14 16 15 18 17 16 17 16 13 12 11 9 8 9 9 9 9 7 6 7
5 3 9 13 7 11 12 10 7 8 6 5 5 7 12 15 16 16 16 15 14 15 15 13 14 14 12 13 14 15 17 17 18 17 15 17 17 13 13 12 9 6 6 8 9 9 6 6 5
3 5 10 11 7 8 9 8 6 3 4 6 5 7 12 17 17 17 16 16 15 15 16 14 13 11 10 10 13 15 15 16 16 16 16 16 16 14 14 14 14 11 9 7 7 6 6 6 5
2 6 10 11 11 8 9 7 4 2 4 10 7 7 14 17 16 16 16 16 16 16 16 15 13 12 11 10 13 14 14 14 14 14 15 17 16 15 17 17 18 17 15 12 8 7 6 6 7
3 8 14 10 11 8 8 9 6 6 5 7 10 8 12 14 15 17 17 17 17 18 17 17 15 13 13 13 15 15 14 16 17 16 15 15 17 16 17 18 18 17 17 15 14 12 12 10 9
9 9 5 9 11 7 6 5 4 3 4 5 7 9 12 14 16 17 17 18 19 19 18 18 16 15 15 15 15 15 15 17 17 16 16 16 16 15 15 16 15 15 15 15 14 13 13 12 10
11 9 7 8 8 9 7 5 6 6 3 5 4 5 11 15 15 16 16 18 21 21 20 18 18 18 16 15 14 16 17 17 17 17 15 14 13 12 11 12 11 12 12 12 12 11 11 11 10
8 10 8 7 7 7 8 7 9 7 9 11 7 4 7 13 17 17 17 18 23 23 22 20 18 20 18 16 17 20 20 20 19 17 15 12 10 9 8 8 7 8 8 8 9 9 10 9 9
13 12 11 7 7 7 7 8 10 13 8 12 10 10 9 15 18 18 19 19 20 23 23 22 19 21 19 19 20 25 24 22 20 17 14 10 8 7 7 7 7 7 6 6 6 6 8 9 8
19 18 13 8 7 9 10 13 11 12 11 16 15 13 14 15 14 19 19 19 20 23 23 23 21 22 21 22 24 26 25 23 21 18 14 10 8 7 7 6 8 8 7 7 7 6 6 6 6
24 19 13 11 9 12 6 10 7 10 10 11 16 15 17 18 20 18 21 21 20 21 24 23 22 24 23 25 28 29 27 24 22 18 14 10 8 7 7 6 6 8 9 9 9 9 7 6 6
25 16 17 14 14 14 14 12 15 10 10 13 16 13 13 15 18 20 19 25 23 22 26 25 23 23 24 29 32 32 30 27 23 19 14 11 9 8 8 7 7 7 8 11 11 11 9 8 8
24 16 16 15 18 21 18 15 14 15 12 12 15 8 8 11 14 19 21 24 27 26 27 28 26 24 25 31 34 35 32 30 26 21 16 12 10 8 8 8 8 7 9 13 14 13 13 12 12
25 22 21 16 17 16 20 19 21 3 6 4 11 12 12 13 16 22 28 30 31 32 28 29 29 27 27 33 35 36 34 32 27 23 18 15 12 9 8 9 8 8 8 13 14 12 11 11 11
31 31 26 18 14 19 25 15 22 17 16 13 12 11 11 21 21 24 30 32 30 35 32 30 30 30 30 34 35 38 36 34 29 25 21 17 14 12 9 9 9 9 9 11 11 10 7 5 4
32 38 33 30 26 17 21 22 20 21 18 14 13 10 9 9 12 23 30 32 34 33 36 34 32 33 32 34 36 39 38 36 32 28 23 20 16 13 11 10 9 9 8 8 7 5 3 1 3
37 27 30 32 22 23 24 25 18 4 7 8 13 10 13 12 10 18 28 31 34 31 37 37 35 33 33 36 38 41 40 38 35 31 27 23 19 16 14 12 10 9 7 6 4 2 1 2 4
27 28 30 31 36 19 17 26 22 22 17 12 16 10 12 11 8 15 23 26 32 33 34 39 38 37 36 37 39 42 42 42 38 34 30 26 23 19 16 15 13 11 8 6 5 4 3 3 5
30 31 31 29 25 27 27 23 14 12 11 9 20 11 9 12 12 12 20 22 28 33 33 36 40 40 38 37 39 42 44 44 42 38 33 30 26 22 20 18 17 15 13 10 9 8 8 8 9
Wind_Direction
114 130 109 145 117 111 109 119 128 131 130 141 150 130 163 135 145 164 149 140 135 130 123 119 118 117 108 106 103 97 96 94 97 102 104 103 103 102 100 99 97 103 100 107 113 108 101 104 111
106 100 102 112 114 129 92 126 130 133 138 138 134 127 109 137 99 144 146 142 135 126 121 121 117 114 107 100 98 97 90 94 99 97 102 107 103 100 94 91 90 92 95 99 101 100 91 86 98
92 96 100 98 101 110 129 137 138 134 129 121 139 141 113 130 143 139 142 139 132 126 126 123 118 117 106 103 101 99 101 101 100 101 104 101 100 90 94 92 89 101 109 113 112 106 95 67 74
73 89 81 92 92 103 134 136 140 136 134 116 117 133 166 149 145 141 142 137 133 131 130 122 120 114 109 106 108 110 109 102 103 107 104 92 84 82 82 84 87 105 115 118 120 95 38 312 272
62 80 87 87 94 114 127 128 135 144 137 118 101 57 133 145 145 142 144 141 136 134 130 122 118 114 110 110 117 118 113 99 110 106 91 80 82 86 89 88 85 96 121 126 79 70 328 294 266
55 81 96 95 107 123 133 133 132 143 141 122 86 69 151 147 147 145 148 146 137 137 129 121 119 116 113 116 118 119 107 94 107 98 87 77 83 86 90 81 79 84 98 96 78 43 8 41 64
68 62 94 104 123 133 144 145 141 147 155 159 145 127 159 154 150 150 152 148 140 136 129 121 126 117 115 112 113 110 106 101 105 103 83 81 86 93 98 93 83 88 83 86 72 45 49 72 86
92 75 89 121 143 150 157 159 144 139 152 172 136 134 160 163 155 153 155 150 141 136 128 126 125 119 116 110 102 98 96 111 107 99 109 104 101 92 95 93 91 92 89 83 72 67 77 87 83
82 76 102 96 126 162 175 166 166 163 169 165 148 128 160 167 162 156 159 150 143 134 131 129 127 118 116 111 103 93 106 102 103 101 121 118 89 95 90 83 87 98 84 90 87 77 83 88 89
81 80 99 67 83 160 157 155 164 176 166 172 151 125 141 164 165 154 158 151 147 138 136 134 129 117 116 112 96 106 109 104 109 104 111 105 107 108 102 90 100 98 84 93 91 83 82 83 83
70 72 112 89 59 146 150 151 137 137 155 163 188 167 158 159 167 159 158 159 153 144 141 139 127 114 113 113 106 104 104 101 110 116 116 106 107 108 102 103 100 101 88 89 101 95 90 78 82
65 69 122 119 91 123 138 138 132 128 147 165 152 157 157 162 170 165 166 164 157 151 146 146 132 120 111 114 110 110 112 109 114 113 110 106 98 93 90 91 100 91 81 93 118 117 99 88 91
55 91 144 126 108 134 133 130 144 135 131 137 148 156 159 165 170 172 169 169 165 159 150 153 141 125 114 115 113 119 115 111 108 106 104 98 94 91 88 81 82 90 105 110 128 130 121 99 76
42 83 141 139 148 148 141 151 122 167 169 162 159 171 179 169 172 179 174 171 170 166 155 158 151 138 129 119 125 124 120 113 107 107 103 94 94 89 90 89 88 89 99 122 138 151 151 143 128
150 129 141 155 156 146 160 167 165 131 106 153 158 163 180 177 175 178 177 175 175 172 163 160 154 140 133 135 134 132 128 121 119 114 107 107 98 91 86 83 81 82 88 95 105 120 131 138 134
176 189 167 166 167 180 196 132 167 131 123 157 152 160 180 183 169 173 180 180 180 179 172 166 165 150 140 139 133 135 136 131 128 122 115 106 103 93 87 80 78 80 84 85 88 100 107 109 104
213 209 214 150 179 194 201 96 239 141 152 141 161 168 171 181 182 177 179 183 185 184 178 174 171 162 154 150 145 136 139 140 136 132 126 119 108 102 95 87 84 81 80 81 82 85 89 93 92
205 213 183 174 194 188 206 220 269 263 242 189 157 177 187 186 187 184 184 187 190 188 180 185 178 171 168 162 160 152 151 150 145 141 134 126 117 110 107 100 98 93 89 85 83 82 83 84 82
235 226 197 204 194 203 228 229 245 255 243 226 235 226 205 197 189 191 192 194 193 193 187 188 185 174 174 171 166 160 159 156 156 153 145 138 129 121 110 103 104 108 112 111 107 100 94 90 81
220 219 214 204 212 212 239 252 234 239 251 224 241 239 218 203 200 198 198 198 203 199 194 186 189 180 176 174 169 166 166 165 165 161 152 147 137 125 114 108 98 93 110 130 130 113 97 86 74
220 222 216 226 206 237 253 263 234 225 242 217 227 220 212 217 211 209 201 203 202 205 202 192 187 187 182 180 175 173 171 170 174 167 159 155 143 127 111 98 88 79 84 105 125 132 120 102 80
221 219 226 224 233 237 213 268 202 225 224 237 218 216 221 216 208 210 210 206 204 201 202 202 192 193 189 184 181 178 177 178 183 175 167 160 154 137 121 109 87 71 66 88 109 119 119 102 84
225 223 224 235 238 250 247 250 259 226 223 226 195 204 218 232 235 219 210 209 202 203 200 203 199 199 194 186 184 181 183 186 187 182 176 172 169 156 136 121 103 82 82 87 93 104 108 101 86
219 223 221 234 243 247 240 253 264 233 228 217 210 228 233 242 243 239 222 211 204 205 202 204 204 204 196 186 185 184 185 191 190 188 186 183 182 166 141 127 116 99 95 97 96 100 102 99 96
211 213 222 224 228 238 240 241 238 168 187 217 208 237 265 270 240 235 224 210 200 205 204 204 205 207 197 190 188 187 190 196 196 195 193 191 187 176 161 148 136 130 125 120 113 107 103 99 94
216 217 227 226 229 235 227 232 244 250 254 261 240 254 268 260 242 236 225 214 207 204 205 208 205 207 201 195 192 191 195 200 202 202 201 199 194 185 178 164 150 141 140 138 138 134 131 117 100
218 224 227 244 249 258 231 233 253 249 251 257 264 269 302 287 276 232 218 215 210 208 206 208 207 207 204 199 197 194 199 204 206 208 207 208 202 194 190 184 171 157 152 148 151 157 177 248 314
219 223 219 230 240 241 232 246 240 205 232 208 228 274 320 341 292 221 213 210 210 209 209 207 211 210 206 202 201 198 201 208 212 214 213 213 212 205 201 200 195 189 184 178 179 183 228 305 326
202 214 219 229 225 239 238 241 237 246 252 259 256 289 308 354 327 217 209 209 205 209 209 209 210 211 211 206 205 203 203 210 215 218 218 218 218 215 209 211 211 212 219 221 232 245 267 305 331
219 213 214 221 223 234 256 248 226 231 228 247 218 280 303 343 1 220 209 209 206 209 212 212 213 212 211 211 209 208 207 210 215 220 221 222 222 220 216 218 218 223 233 239 245 257 276 296 311